sat.trackr.live / text

‹ back to catalog

GRACE-FO 2

NORAD 43477 · 2018-047B

PAYLOAD ACTIVE UNKNOWN

§ Identity

Operator
Country
US
Launch date
2018-05-22
Launch site
AFWTR
Launch vehicle
Mass (kg)
RCS (m²)

External: N2YO · Heavens-Above · Gunter

§ Orbital elements

Epoch: 2026-05-25T04:41:38.392800Z

Period
93.62 min
Inclination
88.9937°
Eccentricity
0.0010283
Mean motion
15.38085864 rev/d
Perigee alt
444.7 km
Apogee alt
458.8 km
Semi-major
6,829.9 km
B*
8.8217e-5
RAAN
201.1141°
Arg perigee
183.8529°
Mean anomaly
176.2649°
Rev number
44,626

§ Raw data

GRACE-FO 21 43477U 18047B   26145.19558325  .00003342  00000+0  88217-4 0  99922 43477  88.9937 201.1141 0010283 183.8529 176.2649 15.38085864446266

JSON: /api/v1/satellites/43477 · /tle

For live sub-satellite position, see the globe view (requires WebGL).

§ Visibility from observer

Set your observer location to see the next 7 days of passes ≥ 10°. The values pass through the URL so the page stays shareable.

No JS? Fill the form by hand. The geolocation button needs JavaScript.